"Sample Date","Sample Time","Sensor Name","Sample Value","Units","Flow Rate","Sample Interval","Sample Volume","Laser Status","Number Channels","Micron Size 0","Counts/Channel 0","Micron Size 1","Counts/Channel 1","Micron Size 2","Counts/Channel 2","Micron Size 3","Counts/Channel 3","Micron Size 4","Counts/Channel 4","Micron Size 5","Counts/Channel 5","Micron Size 6","Counts/Channel 6","Micron Size 7","Counts/Channel 7","Micron Size 8","Counts/Channel 8","Micron Size 9","Counts/Channel 9","Micron Size 10","Counts/Channel 10","Micron Size 11","Counts/Channel 11","Micron Size 12","Counts/Channel 12","Micron Size 13","Counts/Channel 13","Micron Size 14","Counts/Channel 14","Micron Size 15","Counts/Channel 15","Micron Size 16","Counts/Channel 16","Micron Size 17","Counts/Channel 17","Micron Size 18","Counts/Channel 18","Micron Size 19","Counts/Channel 19","Micron Size 20","Counts/Channel 20","Micron Size 21","Counts/Channel 21","Micron Size 22","Counts/Channel 22","Micron Size 23","Counts/Channel 23","Micron Size 24","Counts/Channel 24","Micron Size 25","Counts/Channel 25","Micron Size 26","Counts/Channel 26","Micron Size 27","Counts/Channel 27","Micron Size 28","Counts/Channel 28","Micron Size 29","Counts/Channel 29","Micron Size 30","Counts/Channel 30","Micron Size 31","Counts/Channel 31"
"07/08/06","16:00:01","AMMA06",33778.000,"cc",28320.670,6.00,2832.067,1,6,0.100,18467.000,0.200,13191.000,0.300,1730.000,0.500,236.000,1.000,154.000,5.000,0
"07/08/06","16:00:07","AMMA06",33653.000,"cc",28344.361,6.00,2834.436,1,6,0.100,18450.000,0.200,13223.000,0.300,1626.000,0.500,222.000,1.000,132.000,5.000,0
"07/08/06","16:00:13","AMMA06",34009.000,"cc",28352.637,6.00,2835.264,1,6,0.100,18699.000,0.200,13171.000,0.300,1719.000,0.500,257.000,1.000,163.000,5.000,0
"07/08/06","16:00:19","AMMA06",33698.000,"cc",28306.695,6.00,2830.670,1,6,0.100,18447.000,0.200,13250.000,0.300,1641.000,0.500,213.000,1.000,147.000,5.000,0
"07/08/06","16:00:25","AMMA06",34103.000,"cc",28288.832,6.00,2828.883,1,6,0.100,18656.000,0.200,13342.000,0.300,1712.000,0.500,236.000,1.000,157.000,5.000,0
"07/08/06","16:00:31","AMMA06",33920.000,"cc",28308.695,6.00,2830.870,1,6,0.100,18583.000,0.200,13182.000,0.300,1722.000,0.500,276.000,1.000,157.000,5.000,0
"07/08/06","16:00:37","AMMA06",33784.000,"cc",28365.076,6.00,2836.508,1,6,0.100,18463.000,0.200,13242.000,0.300,1678.000,0.500,251.000,1.000,150.000,5.000,0
"07/08/06","16:00:43","AMMA06",34014.000,"cc",28352.813,6.00,2835.282,1,6,0.100,18390.000,0.200,13454.000,0.300,1747.000,0.500,262.000,1.000,161.000,5.000,0
"07/08/06","16:00:49","AMMA06",33847.000,"cc",28273.023,6.00,2827.303,1,6,0.100,18526.000,0.200,13260.000,0.300,1704.000,0.500,212.000,1.000,145.000,5.000,0
"07/08/06","16:00:55","AMMA06",33493.000,"cc",28321.234,6.00,2832.124,1,6,0.100,18452.000,0.200,12918.000,0.300,1740.000,0.500,241.000,1.000,142.000,5.000,0
"07/08/06","16:01:01","AMMA06",33711.000,"cc",28346.254,6.00,2834.626,1,6,0.100,18525.000,0.200,13057.000,0.300,1750.000,0.500,217.000,1.000,162.000,5.000,0
"07/08/06","16:01:07","AMMA06",33374.000,"cc",28319.820,6.00,2831.982,1,6,0.100,18294.000,0.200,13014.000,0.300,1684.000,0.500,253.000,1.000,129.000,5.000,0
"07/08/06","16:01:13","AMMA06",33856.000,"cc",28303.486,6.00,2830.349,1,6,0.100,18472.000,0.200,13272.000,0.300,1744.000,0.500,234.000,1.000,134.000,5.000,0
"07/08/06","16:01:19","AMMA06",33394.000,"cc",28350.385,6.00,2835.039,1,6,0.100,18281.000,0.200,13057.000,0.300,1695.000,0.500,244.000,1.000,117.000,5.000,0
"07/08/06","16:01:25","AMMA06",33099.000,"cc",28263.326,6.00,2826.333,1,6,0.100,18266.000,0.200,12792.000,0.300,1660.000,0.500,226.000,1.000,155.000,5.000,0
"07/08/06","16:01:31","AMMA06",33706.000,"cc",28340.309,6.00,2834.031,1,6,0.100,18591.000,0.200,13103.000,0.300,1645.000,0.500,214.000,1.000,153.000,5.000,0
"07/08/06","16:01:37","AMMA06",33876.000,"cc",28332.803,6.00,2833.281,1,6,0.100,18689.000,0.200,13093.000,0.300,1715.000,0.500,238.000,1.000,141.000,5.000,0
"07/08/06","16:01:43","AMMA06",33619.000,"cc",28294.590,6.00,2829.459,1,6,0.100,18610.000,0.200,13001.000,0.300,1636.000,0.500,235.000,1.000,137.000,5.000,0
"07/08/06","16:01:49","AMMA06",33848.000,"cc",28313.424,6.00,2831.343,1,6,0.100,18848.000,0.200,12943.000,0.300,1668.000,0.500,246.000,1.000,143.000,5.000,0
"07/08/06","16:01:55","AMMA06",33783.000,"cc",28295.379,6.00,2829.538,1,6,0.100,18750.000,0.200,12956.000,0.300,1672.000,0.500,239.000,1.000,166.000,5.000,0
"07/08/06","16:02:01","AMMA06",33732.000,"cc",28338.731,6.00,2833.873,1,6,0.100,18582.000,0.200,13043.000,0.300,1749.000,0.500,207.000,1.000,151.000,5.000,0
"07/08/06","16:02:07","AMMA06",33756.000,"cc",28310.147,6.00,2831.015,1,6,0.100,18548.000,0.200,13135.000,0.300,1652.000,0.500,255.000,1.000,166.000,5.000,0
"07/08/06","16:02:13","AMMA06",33538.000,"cc",28297.422,6.00,2829.742,1,6,0.100,18788.000,0.200,12808.000,0.300,1574.000,0.500,214.000,1.000,154.000,5.000,0
"07/08/06","16:02:19","AMMA06",33900.000,"cc",28311.758,6.00,2831.176,1,6,0.100,18966.000,0.200,12974.000,0.300,1593.000,0.500,225.000,1.000,142.000,5.000,0
"07/08/06","16:02:25","AMMA06",33699.000,"cc",28302.877,6.00,2830.288,1,6,0.100,18686.000,0.200,12943.000,0.300,1693.000,0.500,225.000,1.000,152.000,5.000,0
"07/08/06","16:02:31","AMMA06",33572.000,"cc",28344.805,6.00,2834.481,1,6,0.100,18683.000,0.200,12905.000,0.300,1633.000,0.500,213.000,1.000,138.000,5.000,0
"07/08/06","16:02:37","AMMA06",33716.000,"cc",28317.811,6.00,2831.781,1,6,0.100,18810.000,0.200,12933.000,0.300,1615.000,0.500,228.000,1.000,130.000,5.000,0
"07/08/06","16:02:43","AMMA06",33718.000,"cc",28289.799,6.00,2828.980,1,6,0.100,18772.000,0.200,12978.000,0.300,1595.000,0.500,216.000,1.000,157.000,5.000,0
"07/08/06","16:02:49","AMMA06",33507.000,"cc",28327.660,6.00,2832.766,1,6,0.100,18781.000,0.200,12683.000,0.300,1676.000,0.500,231.000,1.000,136.000,5.000,0
"07/08/06","16:02:55","AMMA06",33577.000,"cc",28288.740,6.00,2828.874,1,6,0.100,18766.000,0.200,12822.000,0.300,1619.000,0.500,248.000,1.000,122.000,5.000,0
"07/08/06","16:03:01","AMMA06",33457.000,"cc",28323.031,6.00,2832.303,1,6,0.100,18643.000,0.200,12804.000,0.300,1624.000,0.500,244.000,1.000,142.000,5.000,0
"07/08/06","16:03:07","AMMA06",33613.000,"cc",28311.158,6.00,2831.116,1,6,0.100,18906.000,0.200,12718.000,0.300,1579.000,0.500,254.000,1.000,156.000,5.000,0
"07/08/06","16:03:13","AMMA06",33584.000,"cc",28322.352,6.00,2832.235,1,6,0.100,18976.000,0.200,12619.000,0.300,1596.000,0.500,257.000,1.000,136.000,5.000,0
"07/08/06","16:03:19","AMMA06",34069.000,"cc",28310.484,6.00,2831.049,1,6,0.100,19027.000,0.200,13065.000,0.300,1573.000,0.500,249.000,1.000,155.000,5.000,0
"07/08/06","16:03:25","AMMA06",33649.000,"cc",28323.598,6.00,2832.360,1,6,0.100,18920.000,0.200,12719.000,0.300,1639.000,0.500,253.000,1.000,118.000,5.000,0
"07/08/06","16:03:31","AMMA06",33371.000,"cc",28322.715,6.00,2832.272,1,6,0.100,18863.000,0.200,12566.000,0.300,1603.000,0.500,192.000,1.000,147.000,5.000,0
"07/08/06","16:03:37","AMMA06",33517.000,"cc",28301.229,6.00,2830.123,1,6,0.100,18925.000,0.200,12640.000,0.300,1538.000,0.500,283.000,1.000,131.000,5.000,0
"07/08/06","16:03:43","AMMA06",33389.000,"cc",28339.740,6.00,2833.974,1,6,0.100,18729.000,0.200,12720.000,0.300,1553.000,0.500,235.000,1.000,152.000,5.000,0
"07/08/06","16:03:49","AMMA06",33595.000,"cc",28302.221,6.00,2830.222,1,6,0.100,18963.000,0.200,12679.000,0.300,1560.000,0.500,237.000,1.000,156.000,5.000,0
"07/08/06","16:03:55","AMMA06",33568.000,"cc",28333.861,6.00,2833.386,1,6,0.100,19035.000,0.200,12537.000,0.300,1585.000,0.500,265.000,1.000,146.000,5.000,0
"07/08/06","16:04:01","AMMA06",33640.000,"cc",28311.744,6.00,2831.175,1,6,0.100,19029.000,0.200,12697.000,0.300,1549.000,0.500,239.000,1.000,126.000,5.000,0
"07/08/06","16:04:07","AMMA06",33642.000,"cc",28302.637,6.00,2830.264,1,6,0.100,19020.000,0.200,12662.000,0.300,1561.000,0.500,246.000,1.000,153.000,5.000,0
"07/08/06","16:04:13","AMMA06",33510.000,"cc",28331.166,6.00,2833.117,1,6,0.100,18920.000,0.200,12581.000,0.300,1611.000,0.500,252.000,1.000,146.000,5.000,0
"07/08/06","16:04:19","AMMA06",33450.000,"cc",28354.781,6.00,2835.478,1,6,0.100,18779.000,0.200,12697.000,0.300,1599.000,0.500,244.000,1.000,131.000,5.000,0
"07/08/06","16:04:25","AMMA06",33432.000,"cc",28344.506,6.00,2834.451,1,6,0.100,18995.000,0.200,12489.000,0.300,1555.000,0.500,240.000,1.000,153.000,5.000,0
"07/08/06","16:04:31","AMMA06",33264.000,"cc",28276.744,6.00,2827.675,1,6,0.100,18954.000,0.200,12364.000,0.300,1552.000,0.500,248.000,1.000,146.000,5.000,0
"07/08/06","16:04:37","AMMA06",33303.000,"cc",28293.775,6.00,2829.378,1,6,0.100,18920.000,0.200,12508.000,0.300,1516.000,0.500,255.000,1.000,104.000,5.000,0
"07/08/06","16:04:43","AMMA06",33766.000,"cc",28342.690,6.00,2834.269,1,6,0.100,18970.000,0.200,12813.000,0.300,1611.000,0.500,226.000,1.000,146.000,5.000,0
"07/08/06","16:04:49","AMMA06",33421.000,"cc",28297.191,6.00,2829.719,1,6,0.100,19040.000,0.200,12457.000,0.300,1559.000,0.500,226.000,1.000,139.000,5.000,0
"07/08/06","16:04:55","AMMA06",33359.000,"cc",28311.951,6.00,2831.195,1,6,0.100,18930.000,0.200,12415.000,0.300,1623.000,0.500,242.000,1.000,149.000,5.000,0
"07/08/06","16:05:01","AMMA06",33735.000,"cc",28376.061,6.00,2837.606,1,6,0.100,19257.000,0.200,12499.000,0.300,1578.000,0.500,238.000,1.000,163.000,5.000,0
"07/08/06","16:05:07","AMMA06",33686.000,"cc",28296.459,6.00,2829.646,1,6,0.100,19094.000,0.200,12660.000,0.300,1559.000,0.500,220.000,1.000,153.000,5.000,0
"07/08/06","16:05:13","AMMA06",33385.000,"cc",28320.014,6.00,2832.002,1,6,0.100,19007.000,0.200,12376.000,0.300,1610.000,0.500,245.000,1.000,147.000,5.000,0
"07/08/06","16:05:19","AMMA06",33441.000,"cc",28341.445,6.00,2834.145,1,6,0.100,19180.000,0.200,12251.000,0.300,1651.000,0.500,225.000,1.000,134.000,5.000,0
"07/08/06","16:05:25","AMMA06",33173.000,"cc",28271.461,6.00,2827.146,1,6,0.100,18930.000,0.200,12307.000,0.300,1578.000,0.500,243.000,1.000,115.000,5.000,0
"07/08/06","16:05:31","AMMA06",33034.000,"cc",28315.641,6.00,2831.564,1,6,0.100,18769.000,0.200,12394.000,0.300,1504.000,0.500,219.000,1.000,148.000,5.000,0
"07/08/06","16:05:37","AMMA06",33499.000,"cc",28291.844,6.00,2829.185,1,6,0.100,18977.000,0.200,12577.000,0.300,1531.000,0.500,273.000,1.000,141.000,5.000,0
"07/08/06","16:05:43","AMMA06",33388.000,"cc",28354.154,6.00,2835.416,1,6,0.100,18872.000,0.200,12589.000,0.300,1567.000,0.500,216.000,1.000,144.000,5.000,0
"07/08/06","16:05:49","AMMA06",33396.000,"cc",28318.686,6.00,2831.869,1,6,0.100,18934.000,0.200,12584.000,0.300,1521.000,0.500,224.000,1.000,133.000,5.000,0
"07/08/06","16:05:55","AMMA06",33701.000,"cc",28299.320,6.00,2829.932,1,6,0.100,19039.000,0.200,12735.000,0.300,1543.000,0.500,238.000,1.000,146.000,5.000,0
"07/08/06","16:06:01","AMMA06",33275.000,"cc",28343.678,6.00,2834.368,1,6,0.100,18836.000,0.200,12475.000,0.300,1581.000,0.500,229.000,1.000,154.000,5.000,0
"07/08/06","16:06:07","AMMA06",33592.000,"cc",28342.016,6.00,2834.202,1,6,0.100,18962.000,0.200,12686.000,0.300,1595.000,0.500,227.000,1.000,122.000,5.000,0
"07/08/06","16:06:13","AMMA06",33152.000,"cc",28329.418,6.00,2832.942,1,6,0.100,18988.000,0.200,12262.000,0.300,1512.000,0.500,254.000,1.000,136.000,5.000,0
"07/08/06","16:06:19","AMMA06",33269.000,"cc",28255.211,6.00,2825.521,1,6,0.100,18934.000,0.200,12371.000,0.300,1584.000,0.500,218.000,1.000,162.000,5.000,0
"07/08/06","16:06:25","AMMA06",33531.000,"cc",28277.615,6.00,2827.762,1,6,0.100,19116.000,0.200,12471.000,0.300,1564.000,0.500,234.000,1.000,146.000,5.000,0
"07/08/06","16:06:31","AMMA06",33227.000,"cc",28334.295,6.00,2833.430,1,6,0.100,18802.000,0.200,12478.000,0.300,1550.000,0.500,242.000,1.000,155.000,5.000,0
"07/08/06","16:06:37","AMMA06",34173.000,"cc",28269.703,6.00,2826.971,1,6,0.100,19329.000,0.200,12499.000,0.300,1809.000,0.500,336.000,1.000,200.000,5.000,0
"07/08/06","16:06:43","AMMA06",33647.000,"cc",28354.971,6.00,2835.497,1,6,0.100,19066.000,0.200,12484.000,0.300,1662.000,0.500,284.000,1.000,151.000,5.000,0
"07/08/06","16:06:49","AMMA06",33605.000,"cc",28332.205,6.00,2833.221,1,6,0.100,19062.000,0.200,12529.000,0.300,1610.000,0.500,249.000,1.000,155.000,5.000,0
"07/08/06","16:06:55","AMMA06",33526.000,"cc",28312.078,6.00,2831.208,1,6,0.100,18777.000,0.200,12784.000,0.300,1554.000,0.500,253.000,1.000,158.000,5.000,0
"07/08/06","16:07:01","AMMA06",33573.000,"cc",28349.158,6.00,2834.916,1,6,0.100,18847.000,0.200,12765.000,0.300,1589.000,0.500,219.000,1.000,153.000,5.000,0
"07/08/06","16:07:07","AMMA06",32981.000,"cc",28256.453,6.00,2825.646,1,6,0.100,18509.000,0.200,12454.000,0.300,1598.000,0.500,274.000,1.000,146.000,5.000,0
"07/08/06","16:07:13","AMMA06",33473.000,"cc",28330.107,6.00,2833.011,1,6,0.100,18813.000,0.200,12609.000,0.300,1637.000,0.500,261.000,1.000,153.000,5.000,0
"07/08/06","16:07:19","AMMA06",33729.000,"cc",28326.299,6.00,2832.630,1,6,0.100,18914.000,0.200,12776.000,0.300,1645.000,0.500,255.000,1.000,139.000,5.000,0
"07/08/06","16:07:25","AMMA06",33505.000,"cc",28316.805,6.00,2831.681,1,6,0.100,18742.000,0.200,12690.000,0.300,1674.000,0.500,247.000,1.000,152.000,5.000,0
"07/08/06","16:07:31","AMMA06",33417.000,"cc",28298.008,6.00,2829.801,1,6,0.100,18813.000,0.200,12592.000,0.300,1631.000,0.500,246.000,1.000,135.000,5.000,0
"07/08/06","16:07:37","AMMA06",33638.000,"cc",28364.236,6.00,2836.424,1,6,0.100,18675.000,0.200,12914.000,0.300,1611.000,0.500,263.000,1.000,175.000,5.000,0
"07/08/06","16:07:43","AMMA06",33509.000,"cc",28314.891,6.00,2831.489,1,6,0.100,18743.000,0.200,12714.000,0.300,1684.000,0.500,221.000,1.000,147.000,5.000,0
"07/08/06","16:07:49","AMMA06",33774.000,"cc",28327.641,6.00,2832.764,1,6,0.100,18888.000,0.200,12792.000,0.300,1703.000,0.500,225.000,1.000,166.000,5.000,0
"07/08/06","16:07:55","AMMA06",33341.000,"cc",28296.465,6.00,2829.647,1,6,0.100,18524.000,0.200,12687.000,0.300,1711.000,0.500,255.000,1.000,164.000,5.000,0
"07/08/06","16:08:01","AMMA06",33178.000,"cc",28301.104,6.00,2830.111,1,6,0.100,18664.000,0.200,12455.000,0.300,1688.000,0.500,234.000,1.000,137.000,5.000,0
"07/08/06","16:08:07","AMMA06",33499.000,"cc",28334.481,6.00,2833.448,1,6,0.100,18581.000,0.200,12853.000,0.300,1660.000,0.500,249.000,1.000,156.000,5.000,0
"07/08/06","16:08:13","AMMA06",33342.000,"cc",28345.297,6.00,2834.530,1,6,0.100,18493.000,0.200,12714.000,0.300,1714.000,0.500,271.000,1.000,150.000,5.000,0
"07/08/06","16:08:19","AMMA06",33356.000,"cc",28296.361,6.00,2829.636,1,6,0.100,18771.000,0.200,12531.000,0.300,1698.000,0.500,219.000,1.000,137.000,5.000,0
"07/08/06","16:08:25","AMMA06",33330.000,"cc",28342.088,6.00,2834.209,1,6,0.100,18630.000,0.200,12577.000,0.300,1707.000,0.500,255.000,1.000,161.000,5.000,0
"07/08/06","16:08:31","AMMA06",33919.000,"cc",28300.936,6.00,2830.094,1,6,0.100,18888.000,0.200,12863.000,0.300,1766.000,0.500,271.000,1.000,131.000,5.000,0
"07/08/06","16:08:37","AMMA06",33376.000,"cc",28298.086,6.00,2829.809,1,6,0.100,18526.000,0.200,12720.000,0.300,1748.000,0.500,233.000,1.000,149.000,5.000,0
"07/08/06","16:08:43","AMMA06",33336.000,"cc",28359.246,6.00,2835.925,1,6,0.100,18659.000,0.200,12638.000,0.300,1665.000,0.500,232.000,1.000,142.000,5.000,0
"07/08/06","16:08:49","AMMA06",33307.000,"cc",28307.938,6.00,2830.794,1,6,0.100,18506.000,0.200,12708.000,0.300,1678.000,0.500,255.000,1.000,160.000,5.000,0
"07/08/06","16:08:55","AMMA06",33500.000,"cc",28314.828,6.00,2831.483,1,6,0.100,18783.000,0.200,12630.000,0.300,1681.000,0.500,251.000,1.000,155.000,5.000,0
"07/08/06","16:09:01","AMMA06",33305.000,"cc",28373.506,6.00,2837.351,1,6,0.100,18414.000,0.200,12898.000,0.300,1629.000,0.500,221.000,1.000,143.000,5.000,0
"07/08/06","16:09:07","AMMA06",33782.000,"cc",28277.631,6.00,2827.763,1,6,0.100,18708.000,0.200,12922.000,0.300,1769.000,0.500,232.000,1.000,151.000,5.000,0
"07/08/06","16:09:13","AMMA06",33164.000,"cc",28307.631,6.00,2830.763,1,6,0.100,18478.000,0.200,12611.000,0.300,1655.000,0.500,261.000,1.000,159.000,5.000,0
"07/08/06","16:09:19","AMMA06",33382.000,"cc",28282.066,6.00,2828.207,1,6,0.100,18569.000,0.200,12762.000,0.300,1691.000,0.500,222.000,1.000,137.000,5.000,1.000
"07/08/06","16:09:25","AMMA06",34416.000,"cc",28346.568,6.00,2834.657,1,6,0.100,18923.000,0.200,13135.000,0.300,1804.000,0.500,361.000,1.000,193.000,5.000,0
"07/08/06","16:09:31","AMMA06",33288.000,"cc",28328.272,6.00,2832.827,1,6,0.100,18283.000,0.200,12870.000,0.300,1728.000,0.500,254.000,1.000,153.000,5.000,0
"07/08/06","16:09:37","AMMA06",33350.000,"cc",28320.348,6.00,2832.035,1,6,0.100,18436.000,0.200,12787.000,0.300,1717.000,0.500,252.000,1.000,158.000,5.000,0
"07/08/06","16:09:43","AMMA06",34086.000,"cc",28375.875,6.00,2837.588,1,6,0.100,18911.000,0.200,13077.000,0.300,1704.000,0.500,246.000,1.000,148.000,5.000,0
"07/08/06","16:09:49","AMMA06",33717.000,"cc",28237.607,6.00,2823.761,1,6,0.100,18574.000,0.200,13033.000,0.300,1735.000,0.500,235.000,1.000,140.000,5.000,0
"07/08/06","16:09:55","AMMA06",34064.000,"cc",28291.963,6.00,2829.197,1,6,0.100,18794.000,0.200,13133.000,0.300,1765.000,0.500,225.000,1.000,147.000,5.000,0
"07/08/06","16:10:01","AMMA06",33646.000,"cc",28300.424,6.00,2830.043,1,6,0.100,18300.000,0.200,13199.000,0.300,1700.000,0.500,285.000,1.000,162.000,5.000,0
"07/08/06","16:10:07","AMMA06",33535.000,"cc",28333.162,6.00,2833.316,1,6,0.100,18218.000,0.200,13171.000,0.300,1726.000,0.500,277.000,1.000,143.000,5.000,0
"07/08/06","16:10:13","AMMA06",33856.000,"cc",28299.363,6.00,2829.937,1,6,0.100,18624.000,0.200,13127.000,0.300,1741.000,0.500,231.000,1.000,133.000,5.000,0
"07/08/06","16:10:19","AMMA06",34060.000,"cc",28343.106,6.00,2834.311,1,6,0.100,18662.000,0.200,13278.000,0.300,1722.000,0.500,247.000,1.000,151.000,5.000,0
"07/08/06","16:10:25","AMMA06",33935.000,"cc",28281.186,6.00,2828.119,1,6,0.100,18677.000,0.200,13125.000,0.300,1766.000,0.500,229.000,1.000,138.000,5.000,0
"07/08/06","16:10:31","AMMA06",33713.000,"cc",28299.672,6.00,2829.967,1,6,0.100,18637.000,0.200,12928.000,0.300,1773.000,0.500,237.000,1.000,138.000,5.000,0
"07/08/06","16:10:37","AMMA06",33695.000,"cc",28299.764,6.00,2829.977,1,6,0.100,18559.000,0.200,12926.000,0.300,1745.000,0.500,297.000,1.000,168.000,5.000,0
"07/08/06","16:10:43","AMMA06",33505.000,"cc",28317.537,6.00,2831.754,1,6,0.100,18402.000,0.200,12959.000,0.300,1724.000,0.500,249.000,1.000,171.000,5.000,0
"07/08/06","16:10:49","AMMA06",33345.000,"cc",28361.729,6.00,2836.173,1,6,0.100,18412.000,0.200,12814.000,0.300,1710.000,0.500,249.000,1.000,160.000,5.000,0
"07/08/06","16:10:55","AMMA06",33650.000,"cc",28302.273,6.00,2830.228,1,6,0.100,18773.000,0.200,12844.000,0.300,1661.000,0.500,242.000,1.000,130.000,5.000,0
"07/08/06","16:11:01","AMMA06",33223.000,"cc",28351.793,6.00,2835.179,1,6,0.100,18430.000,0.200,12741.000,0.300,1667.000,0.500,253.000,1.000,132.000,5.000,0
"07/08/06","16:11:07","AMMA06",33433.000,"cc",28288.617,6.00,2828.862,1,6,0.100,18634.000,0.200,12715.000,0.300,1642.000,0.500,274.000,1.000,168.000,5.000,0
"07/08/06","16:11:13","AMMA06",33348.000,"cc",28300.547,6.00,2830.055,1,6,0.100,18589.000,0.200,12732.000,0.300,1638.000,0.500,238.000,1.000,151.000,5.000,0
"07/08/06","16:11:19","AMMA06",33431.000,"cc",28327.359,6.00,2832.736,1,6,0.100,18463.000,0.200,12903.000,0.300,1672.000,0.500,237.000,1.000,155.000,5.000,1.000
"07/08/06","16:11:25","AMMA06",33257.000,"cc",28329.315,6.00,2832.932,1,6,0.100,18525.000,0.200,12666.000,0.300,1690.000,0.500,224.000,1.000,152.000,5.000,0
"07/08/06","16:11:31","AMMA06",33213.000,"cc",28303.717,6.00,2830.372,1,6,0.100,18562.000,0.200,12563.000,0.300,1693.000,0.500,259.000,1.000,136.000,5.000,0
"07/08/06","16:11:37","AMMA06",33430.000,"cc",28287.430,6.00,2828.743,1,6,0.100,18771.000,0.200,12692.000,0.300,1597.000,0.500,223.000,1.000,147.000,5.000,0
"07/08/06","16:11:43","AMMA06",33546.000,"cc",28347.604,6.00,2834.761,1,6,0.100,18713.000,0.200,12704.000,0.300,1697.000,0.500,269.000,1.000,163.000,5.000,0
"07/08/06","16:11:49","AMMA06",33380.000,"cc",28312.758,6.00,2831.276,1,6,0.100,18605.000,0.200,12809.000,0.300,1579.000,0.500,240.000,1.000,147.000,5.000,0
"07/08/06","16:11:55","AMMA06",33417.000,"cc",28324.549,6.00,2832.455,1,6,0.100,18667.000,0.200,12748.000,0.300,1609.000,0.500,250.000,1.000,143.000,5.000,0
"07/08/06","16:12:01","AMMA06",33294.000,"cc",28282.877,6.00,2828.288,1,6,0.100,18822.000,0.200,12536.000,0.300,1530.000,0.500,254.000,1.000,152.000,5.000,0
"07/08/06","16:12:07","AMMA06",33274.000,"cc",28311.051,6.00,2831.105,1,6,0.100,18679.000,0.200,12635.000,0.300,1576.000,0.500,240.000,1.000,143.000,5.000,1.000
"07/08/06","16:12:13","AMMA06",33377.000,"cc",28281.289,6.00,2828.129,1,6,0.100,18855.000,0.200,12540.000,0.300,1612.000,0.500,236.000,1.000,134.000,5.000,0
"07/08/06","16:12:19","AMMA06",33580.000,"cc",28295.758,6.00,2829.576,1,6,0.100,18941.000,0.200,12610.000,0.300,1637.000,0.500,253.000,1.000,139.000,5.000,0
"07/08/06","16:12:25","AMMA06",33346.000,"cc",28353.012,6.00,2835.301,1,6,0.100,18872.000,0.200,12498.000,0.300,1587.000,0.500,251.000,1.000,138.000,5.000,0
"07/08/06","16:12:31","AMMA06",33227.000,"cc",28336.482,6.00,2833.648,1,6,0.100,18783.000,0.200,12453.000,0.300,1645.000,0.500,221.000,1.000,125.000,5.000,0
"07/08/06","16:12:37","AMMA06",33283.000,"cc",28372.748,6.00,2837.275,1,6,0.100,18894.000,0.200,12480.000,0.300,1538.000,0.500,220.000,1.000,151.000,5.000,0
"07/08/06","16:12:43","AMMA06",33486.000,"cc",28315.375,6.00,2831.538,1,6,0.100,19067.000,0.200,12460.000,0.300,1569.000,0.500,224.000,1.000,166.000,5.000,0
"07/08/06","16:12:49","AMMA06",33997.000,"cc",28285.191,6.00,2828.519,1,6,0.100,19155.000,0.200,12692.000,0.300,1705.000,0.500,288.000,1.000,157.000,5.000,0
"07/08/06","16:12:55","AMMA06",33407.000,"cc",28321.363,6.00,2832.137,1,6,0.100,18770.000,0.200,12613.000,0.300,1649.000,0.500,240.000,1.000,135.000,5.000,0
"07/08/06","16:13:01","AMMA06",33070.000,"cc",28310.629,6.00,2831.063,1,6,0.100,18752.000,0.200,12430.000,0.300,1521.000,0.500,220.000,1.000,147.000,5.000,0
"07/08/06","16:13:07","AMMA06",33818.000,"cc",28349.850,6.00,2834.985,1,6,0.100,19074.000,0.200,12807.000,0.300,1593.000,0.500,200.000,1.000,144.000,5.000,0
"07/08/06","16:13:13","AMMA06",33351.000,"cc",28290.162,6.00,2829.016,1,6,0.100,18920.000,0.200,12487.000,0.300,1554.000,0.500,243.000,1.000,147.000,5.000,0
"07/08/06","16:13:19","AMMA06",33203.000,"cc",28346.137,6.00,2834.614,1,6,0.100,18671.000,0.200,12630.000,0.300,1548.000,0.500,212.000,1.000,142.000,5.000,0
"07/08/06","16:13:25","AMMA06",33468.000,"cc",28316.059,6.00,2831.606,1,6,0.100,18859.000,0.200,12696.000,0.300,1531.000,0.500,232.000,1.000,150.000,5.000,0
"07/08/06","16:13:31","AMMA06",33370.000,"cc",28264.990,6.00,2826.499,1,6,0.100,18659.000,0.200,12752.000,0.300,1607.000,0.500,219.000,1.000,133.000,5.000,0
"07/08/06","16:13:37","AMMA06",33515.000,"cc",28301.287,6.00,2830.129,1,6,0.100,18902.000,0.200,12600.000,0.300,1623.000,0.500,245.000,1.000,145.000,5.000,0
"07/08/06","16:13:43","AMMA06",33740.000,"cc",28325.684,6.00,2832.569,1,6,0.100,18964.000,0.200,12830.000,0.300,1571.000,0.500,229.000,1.000,146.000,5.000,0
"07/08/06","16:13:49","AMMA06",33945.000,"cc",28353.572,6.00,2835.357,1,6,0.100,19240.000,0.200,12605.000,0.300,1634.000,0.500,306.000,1.000,160.000,5.000,0
"07/08/06","16:13:55","AMMA06",33576.000,"cc",28302.143,6.00,2830.214,1,6,0.100,18948.000,0.200,12606.000,0.300,1641.000,0.500,233.000,1.000,148.000,5.000,0
"07/08/06","16:14:01","AMMA06",33966.000,"cc",28306.729,6.00,2830.673,1,6,0.100,19110.000,0.200,12879.000,0.300,1601.000,0.500,227.000,1.000,149.000,5.000,0
"07/08/06","16:14:07","AMMA06",33428.000,"cc",28308.209,6.00,2830.821,1,6,0.100,18802.000,0.200,12592.000,0.300,1633.000,0.500,256.000,1.000,145.000,5.000,0
"07/08/06","16:14:13","AMMA06",33680.000,"cc",28302.969,6.00,2830.297,1,6,0.100,18880.000,0.200,12803.000,0.300,1605.000,0.500,248.000,1.000,144.000,5.000,0